Regional Weather Roundup
Issued by NWS Wakefield, VA

Home | Current Version | Previous Version | Graphics & Text | Print | Product List | Glossary On
Versions: 1 2 3 4 5 6 7 8 9 10 11 12 13 14 15 16 17 18 19 20 21 22 23 24 25 26 27
000
ASUS41 KAKQ 180416
RWRAKQ

REGIONAL WEATHER ROUNDUP
NATIONAL WEATHER SERVICE WAKEFIELD VA
1200 AM EDT FRI AUG 18 2017

Note: "fair" indicates few or no clouds below 12,000 feet with no
significant weather and/or obstructions to visibility. * = Denotes
station may not report precipitation (e.g., rain,snow,etc.),
thunder or fog.

VAZ042-051-052>054-056-180500-
NORTHERN VIRGINIA

CITY           SKY/WX    TMP DP  RH WIND       PRES   REMARKS
WASH NATIONAL  MOCLDY    80  75  84 S9        29.93F
DULLES         CLOUDY    79  74  84 S9        29.91F
FORT BELVOIR   CLOUDY    77  73  89 SE5       29.92F
QUANTICO       MOCLDY    82  77  84 S10       29.93F
FREDERICKSBRG* CLOUDY    79  75  87 SE3       29.93F
STAFFORD*      CLOUDY    76  76 100 CALM      29.97F
WARRENTON      MOCLDY    77  72  83 SE3       29.92F
CULPEPER*      CLOUDY    78  76  93 S3        29.93F
MANASSAS*      CLOUDY    77  74  90 S5        29.92F
LEESBURG*      LGT RAIN  79  77  94 S6        29.92F
WINCHESTER     MOCLDY    73  70  88 W5        29.91F
FRONT ROYAL*   CLOUDY    75  73  94 W3        29.91F
LURAY*         PTCLDY    77  73  88 S3        29.93F
$$

VAZ048-049-060>072-079>083-180500-
CENTRAL AND SOUTH CENTRAL VIRGINIA

CITY           SKY/WX    TMP DP  RH WIND       PRES   REMARKS
RICHMOND       PTCLDY    77  75  93 S8        29.94S
CHESTERFIELD*  FAIR      77  75  93 S6        29.95F FOG
PETERSBURG*    CLEAR     75  75 100 CALM      29.95F
HANOVER        PTCLDY    78  73  84 S6        29.95F
TAPPAHANNOCK*  PTCLDY    77  73  87 SE5       29.95F
QUINTON*       FAIR      76  76 100 S3        29.94S
CHARLOTTSVILLE PTCLDY    78  76  93 CALM      29.94F FOG
GORDONSVILLE*  FOG       75  75 100 CALM      29.94S VSB 3/4
ORANGE*        CLOUDY    77  73  88 CALM      29.93F
LOUISA*        MOCLDY    75  73  94 CALM      29.94F
BUMPASS*       FAIR      77  76  98 CALM      29.94S
FARMVILLE*     CLEAR     77  76  94 CALM      29.94S
CREWE*         FAIR      76  72  86 S3        29.95S
FORT PICKETT*  FAIR     N/A N/A N/A S13       29.97R
CHASE CITY*    FAIR      76  76  99 S5        29.97S
CLARKSVILLE*   FAIR      75  75 100 CALM      29.96S
SOUTH HILL*    CLEAR     74  74 100 S7        30.02S
LAWRENCEVILLE* FAIR      75  74  97 CALM      29.97S
EMPORIA*         N/A     73  73 100 SE5       29.98S
$$

VAZ088>098-180500-
SOUTHEAST VIRGINIA

CITY           SKY/WX    TMP DP  RH WIND       PRES   REMARKS
NORFOLK        CLOUDY    79  75  87 S7        29.96F
VIRGINIA BEACH MOCLDY    78  72  81 S5        29.96F
NORFOLK NAVAL  MOCLDY    80  73  79 S6        29.97F
WEST POINT*    CLEAR     79  74  84 S5        29.96S
SALUDA*        FAIR      77  75  94 S7        29.95S
NEWPORT NEWS   PTCLDY    79  74  84 S10       29.96F
LANGLEY AFB    NOT AVBL
FORT EUSTIS    NOT AVBL
WILLIAMSBURG*  CLOUDY    81  75  83 CALM      29.97S
HR EXEC AP*    FAIR      75  72  88 S5        29.95F
FRANKLIN*      PTCLDY    76  74  93 S5        29.97F
US460-WAKEFLD  CLOUDY    77  76  96 S5        29.96S
$$

VAZ020-022-025-037-045-180500-
WEST CENTRAL AND SOUTHWEST VIRGINIA

CITY           SKY/WX    TMP DP  RH WIND       PRES   REMARKS
STAUNTON*      PTCLDY    72  71  98 CALM      29.98S
WAYNESBORO*    PTCLDY    73  73 100 S9        29.98F
HOT SPRINGS VA PTCLDY    72  68  88 CALM      30.12F
LYNCHBURG      CLEAR     76  74  93 S5        29.97F
DANVILLE       PTCLDY    77  76  96 CALM      29.97R
SOUTH BOSTON*  FAIR      75  74  96 CALM      29.96S
MARTINSVILLE   CLOUDY    75  74  96 CALM      30.00S
ROANOKE        PTCLDY    75  74  96 CALM      30.00S
BLACKSBURG     CLEAR     73  71  96 CALM      30.07S
DUBLIN*        PTCLDY    73  71  93 CALM      30.06R
MARION*        CLEAR     72  56  57 W7        30.09F
HILLSVILLE*    PTCLDY    72  68  86 CALM      30.08S
RICHLANDS*     FAIR      72  64  75 SW5       30.08F
WISE*          PTCLDY    72  72 100 SW6       30.09S
ABINGDON*      CLEAR     73  71  95 CALM      30.06F
$$

MDZ021>025-VAZ099-100-180500-
SOUTHERN MARYLAND AND THE DELMARVA PENINSULA

CITY           SKY/WX    TMP DP  RH WIND       PRES   REMARKS
PATUXENT RIVER CLEAR     76  74  93 S5        29.94F
BAY BRIDGE APT CLEAR     77  73  88 S8        29.93F
LEONARDTOWN    CLOUDY    75  72  88 CALM      29.96S
DOVER          CLEAR     73  68  83 SE7       29.94F
GEORGETOWN     CLEAR     75  70  84 S8        29.97F
EASTON         CLEAR     76  71  83 S6        29.98F
CAMBRIDGE      CLEAR     73  72  94 SE5       29.95F
SALISBURY      CLEAR     73  72  96 S5        29.96F
OCEAN CITY     CLEAR     76  74  93 S6        29.98F
WALLOPS ISLAND CLEAR     76  76 100 S12       29.98F
ACCOMACK*      CLEAR     77  74  90 S7        29.96F
$$

NCZ012>017-030>032-180500-
NORTH CENTRAL AND EASTERN NORTH CAROLINA

CITY           SKY/WX    TMP DP  RH WIND       PRES   REMARKS
ROANOKE RAPIDS FAIR      73  73 100 S5        29.97F
RALEIGH        PTCLDY    77  74  90 S6        29.98F
ELIZABETH CITY MOCLDY    79  75  87 S7        29.98F
AHOSKIE*         N/A     74  74  99 S3        29.98F
EDENTON*       MOCLDY    81  76  85 CALM      29.99F
CURRITUCK*     MOCLDY    78  73  85 CALM      29.99F
KILL DEVIL HLS MOCLDY    79  72  78 CALM      29.99F
MANTEO         MOCLDY    82  72  72 SW13      30.00F
CAPE HATTERAS  CLOUDY    83  75  77 S8        30.01F
TARBORO*       NOT AVBL
GOLDSBORO      CLEAR     76  76 100 SE1         N/A
WASHINGTON     PTCLDY    80  77  92 S5        29.99F
GREENVILLE     NOT AVBL
NEW BERN       PTCLDY    79  79 100 S5        30.00F
WILMINGTON     PTCLDY    78  77  96 CALM      29.98F
$$

VAZ048-180500-
ELSEWHERE

CITY           SKY/WX    TMP DP  RH WIND       PRES   REMARKS
HARRISBURG PA  CLOUDY    78  74  87 SE7       29.90F
BALTIMORE      MOCLDY    75  73  93 CALM      29.92F
ANNAPOLIS      CLEAR     79  76  90 S8        29.92F
ANDREWS AFB    PTCLDY    74  70  88 S6        29.93F
PHILADELPHIA   PTCLDY    76  71  85 SE7       29.95F
HENDERSON NC   CLEAR     73  71  95 S7        29.97F
GREENSBORO     MOCLDY    80  75  84 S9        29.98S
ROCKY MOUNT    PTCLDY    75  75 100 S3        29.98F
$$

VAZ100-180500-
MARINE

STATION/POSITION TIME  TEMP    WIND        PRES    WAVE   SWELL
                       AIR SEA DIR/SP/G            HT/PER HT/PER
                 (UTC) (F)     (DEG/KT/KT) (MB)    (FT/S) (FT/S)
BRANDYWINE LGT   0348   77     180/ 12/ 14 1015.1F
CAPE MAY NJ      0348   76 78  160/  5/  8 1014.6F
LEWES DE         0348   76 77  180/  4/  5 1014.5F
15NM E FENWICK I 0350   78 78  170/ 14/ 16 1015.5F   2/ 7   2/ 7
OCEAN-CITY-INLET 0348   77 77  200/  9/ 12 1015.5F
WACHAPREAGUE VA  0348   78 84  190/ 10/ 12 1014.8F
THOMAS POINT MD  0400   80 80  180/ 17/ 19   N/A
GOOSES REEF MD   0400   81 79  170/ 14/ 16 1014.3    2/ 3
COVE POINT MD    0348   79     190/ 13/ 17 1014.5F
SOLOMONS ISLAND  0348   78 81  140/  6/  6   N/A
BISHOPS HEAD MD  0348   80 82  170/ 15/ 17 1014.3F
PINEY POINT MD   0348          190/ 12/ 14   N/A
POTOMAC MD       0400   80 80  170/ 12/ 16 1013.1    2/ 3
CAMBRIDGE MD     0348   76 81              1014.9F
LEWISETTA VA     0348   78 83  200/  9/ 11 1013.8F
RAPPAHANNOCK LGT 0348          160/ 13/ 16 1015.0F
STINGRAY PT      0400   80 81  200/ 16/ 17 1014.6    2/ 3
YORK RVR RNG VA  0348   81     200/ 13/ 15 1014.8F
YORKTOWN VA      0348   80 81  200/  4/  7 1014.1F
JAMESTOWN VA     0400      83  180/  6/ 10   N/A
DOMINION TERM VA 0348   80     190/  8/ 10 1014.5F
KIPTOPEKE VA     0348      80  170/ 14/ 16   N/A
CHES BAY BRIDGE  0348   80 79  210/ 11/ 13 1014.5F
CAPE HENRY VA    0348   79     170/  8/ 11   N/A
WILLOUBY STN VA  0348   80     180/ 12/ 14 1014.3F
S CRANEY ISL VA  0348   80     190/  8/ 11 1014.5F
CAPE HENRY BUOY  0400      79                N/A     3/ 4
1ST LANDING BUOY 0400   79 78              1014.5    1/ 3
64NM E OF VA BCH 0350   79 79  190/  8/ 10 1016.3F   2/ 8   2/ 8
DUCK PIER NC     0348   81 75  170/ 11/ 12 1015.0F
44056 DUCK FRF   0400      79                N/A     2/ 8
OREGON INLET NC  0342   82 83  170/  9/ 11 1015.9F
HATTERAS NC      0348   83 85  160/  7/ 10 1016.0F
DIAMOND SHLS NC  0350   84 86  170/  8/ 10 1016.3S   2/ 6   2/ 6
CAPE LOOKOUT NC  0400   83     160/  8/  9 1015.7S
$$




USA.gov is the U.S. government's official web portal to all federal, state and local government web resources and services.